Hourly Data Report for December 30, 2017

VICTORIA UNIVERSITY CS
BRITISH COLUMBIA

48°27'25.200" N
123°18'16.600" W
60.10 m
1018598
71783
WYJ

Download Data

Hourly Data (December 2017)
Hourly Data Report for December 30, 2017
TIME
LST
Temp Definition
°C
Dew Point Definition
°C
Rel Hum Definition
%
Precip. Amount Definition
mm

Wind Dir Definition
10's deg

Wind Spd Definition
km/h
Visibility Definition
km
Stn Press Definition
kPa
Hmdx Definition


Wind Chill Definition


Weather Definition


00:00 6.2 4.7 90 0.6 25 21   100.17     LegendNANA
01:00 6.6 4.7 87 0.9 25 15   100.31     LegendNANA
02:00 6.6 4.3 85 0.4 25 19   100.40     LegendNANA
03:00 7.1 4.3 82 0.0 25 14   100.58     LegendNANA
04:00 7.0 4.3 83 0.0 24 15   100.68     LegendNANA
05:00 6.8 4.2 84 0.0 25 15   100.80     LegendNANA
06:00 6.4 4.2 86 0.0 26 12   100.93     LegendNANA
07:00 6.2 3.5 83 0.0 26 5   101.08     LegendNANA
08:00 4.2 2.9 92 0.0 1 8   101.22     LegendNANA
09:00 4.3 2.2 86 0.0 1 5   101.38     LegendNANA
10:00 4.4 2.2 85 0.0 36 3   101.48     LegendNANA
11:00 4.5 1.8 83 0.0 35 10   101.61     LegendNANA
12:00 4.5 1.9 84 0.0 36 10   101.67     LegendNANA
13:00 4.8 2.4 84 0.0 2 9   101.74     LegendNANA
14:00 4.6 1.9 83 0.0 1 9   101.79     LegendNANA
15:00 4.7 2.3 84 0.0 4 3   101.84     LegendNANA
16:00 4.1 1.5 83 0.0 3 6   101.90     LegendNANA
17:00 3.8 1.2 83 0.0 4 6   101.95     LegendNANA
18:00 3.5 1.2 85 0.0 2 6   101.97     LegendNANA
19:00 3.4 0.8 83 0.0 36 6   101.98     LegendNANA
20:00 3.2 0.7 83 0.0 1 8   101.99     LegendNANA
21:00 3.2 0.7 83 0.0 36 10   101.98     LegendNANA
22:00 3.2 1.5 88 0.0 1 9   102.01     LegendNANA
23:00 2.9 1.2 89 0.0 36 9   102.04     LegendNANA

Notes on Data Quality.

Legend

  • E = Estimated
  • M = Missing
  • NA = Not Available*
  • [empty] = Indicates an unobserved value
Date modified: